Location: Boiro
(42.6475°N, 8.8834°W)
Time: 01:03:51
(UTC+01:00)

Tiros 1 - Pass Details

Date: 30 November 2021
Orbit: 629 x 664 km, 48.4° (Epoch: 26 January)

Event Time Altitude Azimuth Distance (km) Brightness Sun altitude
Rises 19:43:26 0° 189° (S) 2,906 10.8 -17.9°
Reaches altitude 10° 19:46:41 10° 165° (SSE) 2,009 9.7 -18.5°
Enters shadow 19:48:35 14° 141° (SE) 1,753 9.1 -18.9°
